GFSWCAN_925_thetae_000.txt.gz
Theta_e
290 290 290 290 290 291 291 292 296 298 298 300 301 302 302 302 302 303 302 302 302 303 301 302 302 303 305 305 307 304 304 304 304 304 309 311 315 313 312 312 313 315 315 321 318 321 327 315 313 316 314 311 312 312
291 290 291 290 290 291 292 293 297 297 295 299 301 302 302 303 303 303 303 301 302 302 302 302 302 303 303 303 304 304 303 306 305 308 308 310 311 310 313 315 312 316 314 315 317 318 313 313 314 313 312 311 311 311
290 291 291 291 290 290 292 294 298 296 294 298 301 302 303 303 303 303 303 302 301 303 301 298 300 303 303 303 303 306 301 303 305 305 308 310 310 310 310 312 312 311 311 314 314 312 312 312 312 311 310 309 311 310
290 290 291 291 291 290 291 293 298 298 294 297 301 303 303 304 303 302 302 301 301 302 304 300 301 302 302 303 304 303 303 303 302 304 308 309 312 309 310 311 311 309 310 311 312 312 311 312 310 311 311 309 310 310
292 290 290 291 291 291 291 292 295 298 294 296 300 303 305 305 303 303 302 301 301 302 305 302 301 304 304 304 304 304 303 304 305 307 306 306 307 310 311 309 310 309 310 312 314 311 310 310 310 310 310 311 310 310
299 292 290 291 291 291 291 291 295 297 293 294 300 304 305 305 303 302 299 304 304 302 305 304 300 304 304 306 306 307 304 305 306 308 306 304 304 308 310 310 310 308 310 309 311 310 311 310 310 310 310 309 309 310
303 300 292 291 291 291 291 292 296 293 293 294 301 305 306 306 304 301 301 304 305 304 304 305 302 305 304 306 307 305 304 303 305 308 306 303 303 305 305 308 308 306 306 307 309 310 311 310 310 309 308 309 310 310
305 304 300 291 292 293 291 293 297 293 292 294 303 306 307 306 305 305 307 308 304 304 302 307 305 304 305 308 309 302 304 302 304 306 303 303 302 302 304 308 307 306 305 307 308 309 310 311 310 308 308 310 310 310
306 305 305 295 291 294 293 292 296 293 292 298 304 307 306 305 303 306 306 306 303 302 301 306 308 309 303 309 307 307 300 305 302 305 306 305 301 306 308 307 307 305 305 305 307 307 309 311 311 312 311 309 309 311
305 305 305 302 295 295 295 292 295 291 293 300 305 305 299 306 306 306 306 302 301 304 306 308 307 309 307 309 308 306 305 305 308 308 306 308 308 307 306 307 307 306 306 305 306 307 307 307 308 309 311 309 308 309
304 305 305 304 301 296 297 294 293 292 294 297 300 301 303 306 305 297 299 301 300 303 305 307 305 305 306 309 308 304 304 305 306 308 310 310 310 306 308 309 308 307 306 306 306 305 305 305 306 307 309 311 309 308
303 302 304 305 302 299 297 296 292 293 295 297 298 299 302 300 299 304 298 300 304 305 303 305 304 303 306 302 304 304 305 303 307 306 310 313 310 309 309 309 309 308 307 308 307 307 306 306 306 306 306 308 310 310
301 301 302 303 304 302 296 293 293 294 297 303 303 304 298 299 300 306 306 303 302 304 304 303 303 302 304 300 301 298 304 305 298 299 309 311 308 307 306 306 306 307 309 310 310 309 308 308 308 307 307 306 307 310
301 302 301 302 303 296 294 293 295 295 299 303 303 300 301 303 302 302 304 304 302 302 302 301 301 300 299 300 304 303 300 297 293 296 301 306 307 305 304 304 304 306 309 310 310 310 310 309 309 308 307 307 308 309
300 300 299 303 297 295 297 297 298 298 300 305 299 300 301 302 302 302 301 302 301 301 300 299 300 301 296 299 302 296 297 294 294 298 300 303 304 303 303 303 304 305 308 309 309 310 310 310 310 310 309 308 308 308
299 299 300 296 295 299 297 298 300 302 304 305 301 303 301 303 303 303 302 303 300 299 299 298 300 301 300 299 296 295 300 293 297 298 301 301 303 302 302 302 304 304 306 308 308 309 309 309 309 310 311 309 308 308
298 299 298 299 298 298 299 298 301 305 305 305 301 301 301 301 302 302 301 302 299 301 301 300 304 302 299 296 295 302 299 297 298 301 300 300 301 302 302 303 305 305 305 305 307 309 309 308 308 308 310 309 308 308
298 298 299 298 296 294 296 299 302 303 307 303 301 302 301 301 302 302 300 299 301 302 302 304 301 300 298 295 292 294 299 299 299 300 301 301 301 301 303 304 304 305 304 304 305 307 308 308 308 308 308 306 309 309
298 298 298 299 295 296 296 299 302 305 305 302 300 300 300 300 299 300 300 298 299 300 303 303 304 302 300 299 300 299 299 300 302 302 301 302 302 302 304 303 303 303 302 303 304 306 307 307 308 308 306 305 306 308
298 298 299 296 294 297 300 300 303 302 302 303 301 302 301 301 300 299 300 299 300 301 303 303 303 302 301 301 300 301 300 300 301 302 302 302 302 302 302 301 300 301 302 303 304 307 306 307 307 307 306 305 305 307
297 296 296 296 296 296 299 301 302 300 299 302 303 302 303 300 301 301 301 299 301 299 301 301 302 301 299 300 302 301 300 300 301 302 303 303 302 302 301 302 302 302 300 300 302 304 305 306 306 306 305 305 304 303
296 295 296 295 296 299 298 298 298 300 300 302 301 302 299 297 298 300 299 301 302 302 300 300 300 301 301 302 302 302 303 303 303 302 302 302 303 302 301 301 300 299 300 300 301 302 304 305 305 305 304 302 302 300
295 295 294 295 298 301 302 301 303 302 301 301 298 301 298 296 300 299 297 300 301 300 299 298 300 301 301 303 305 305 306 304 301 301 302 302 303 303 303 302 301 300 300 302 303 303 303 303 303 303 302 302 300 300
294 295 298 297 297 299 298 302 299 297 296 299 298 303 300 298 298 298 299 300 299 297 298 299 300 301 301 302 302 301 302 302 302 302 302 301 301 301 303 303 303 302 302 303 303 302 301 301 302 301 300 300 299 298
296 296 297 298 297 300 301 301 300 297 304 302 302 301 298 295 297 298 301 300 297 297 297 299 299 301 302 302 300 301 303 303 301 301 301 302 302 302 301 301 302 302 303 304 303 301 300 298 300 299 298 297 297 297
297 293 295 296 296 299 301 303 302 302 302 302 300 297 291 297 300 302 301 298 297 296 297 298 299 299 300 299 300 300 301 303 303 300 301 302 302 301 299 299 299 300 303 303 303 300 298 297 297 297 296 296 295 296
296 294 292 294 293 297 297 298 298 297 302 302 297 297 296 303 303 300 298 296 298 299 301 302 300 298 300 301 302 303 302 303 303 302 301 300 299 299 299 298 299 300 302 302 301 299 297 296 296 295 295 294 293 293
294 292 295 291 295 294 300 298 299 300 300 298 299 302 303 302 301 300 298 299 300 299 301 301 302 302 301 301 302 301 302 302 302 301 299 298 297 298 300 300 299 300 300 300 298 297 296 295 294 294 293 292 292 291
296 293 293 294 295 293 295 297 298 298 299 302 302 301 302 301 300 300 301 301 301 300 298 296 299 298 298 299 300 301 302 301 297 298 298 296 294 296 299 299 299 299 297 296 295 294 293 293 293 292 291 290 290 290
294 292 295 295 296 297 296 296 297 298 299 300 299 300 300 300 301 301 301 301 300 298 298 299 300 299 297 297 294 294 296 297 298 296 294 294 294 296 296 298 298 298 298 297 295 293 293 293 292 291 291 290 289 288
293 293 295 293 296 296 296 296 297 296 296 297 298 297 298 299 301 300 298 297 298 297 298 297 298 299 298 296 295 294 292 293 294 295 296 296 296 296 296 296 297 297 296 295 293 292 291 291 290 288 287 286 286 286
293 295 296 296 293 292 295 296 294 296 297 298 297 297 299 301 302 296 294 296 297 297 297 297 295 294 298 298 297 296 295 292 292 292 293 293 293 294 295 295 295 295 293 292 291 290 290 289 288 287 285 284 283 282
291 293 293 295 293 293 295 297 298 297 295 296 298 298 298 299 299 293 294 294 294 295 294 294 294 294 294 293 292 291 292 292 292 292 293 293 294 294 293 293 292 292 291 291 289 289 288 287 286 285 284 283 282 281

GFSWCAN_925_thetae_003.txt.gz
Theta_e
292 290 290 291 291 291 291 291 292 297 297 296 300 301 302 302 303 303 302 302 302 303 303 302 302 304 304 305 308 307 307 307 308 308 309 310 311 313 312 312 315 318 321 320 318 324 327 314 314 318 315 314 314 315
298 293 291 291 291 291 291 291 292 293 298 294 299 301 302 302 303 303 304 301 301 302 303 302 302 302 303 303 305 305 306 307 309 308 308 309 313 310 312 317 311 317 315 318 317 318 313 313 313 313 312 313 312 313
303 299 296 292 291 291 291 291 292 293 297 293 294 301 303 303 303 303 303 302 301 302 304 303 304 302 302 303 303 306 305 305 308 307 309 309 311 311 313 314 313 311 311 316 315 314 313 313 313 311 311 312 312 311
306 303 302 299 293 292 292 291 292 294 296 293 293 298 303 304 303 303 302 302 301 302 306 305 301 304 304 304 304 303 304 304 305 307 308 309 311 308 313 312 313 312 312 313 314 312 313 312 312 311 311 311 311 311
306 306 305 304 300 292 293 293 292 296 296 292 292 297 302 304 304 302 302 301 301 304 308 307 305 304 305 306 305 305 304 305 307 307 309 309 309 309 311 311 312 311 313 315 315 311 311 311 310 310 310 310 310 310
306 306 306 306 305 297 292 294 293 293 297 294 292 296 303 304 304 303 305 303 302 301 305 309 305 305 305 306 307 308 305 306 307 305 309 309 307 310 310 312 310 309 307 309 311 311 311 311 310 310 309 309 310 311
306 306 305 306 305 304 293 294 294 293 296 293 293 302 306 306 304 303 306 304 305 303 306 307 307 306 306 308 308 308 305 308 309 310 308 308 308 308 310 310 309 308 307 307 307 310 311 310 311 311 310 311 311 310
304 305 305 305 305 305 301 295 295 295 295 293 298 304 307 306 304 305 306 308 305 305 305 307 309 309 306 309 310 307 309 307 308 309 308 309 308 308 310 309 309 307 307 307 307 307 308 309 311 312 311 311 312 311
303 304 305 306 305 305 303 296 295 295 296 294 301 306 306 305 304 305 306 306 305 304 308 307 310 312 308 311 309 309 307 311 308 310 310 309 308 310 308 308 308 308 308 307 307 308 308 309 309 309 310 310 312 313
303 303 304 305 305 305 303 299 295 294 297 295 304 305 308 305 305 307 305 307 306 308 307 309 309 312 309 312 309 308 307 308 311 309 308 306 308 306 307 307 308 310 309 308 310 310 309 309 309 309 309 309 309 311
301 302 303 303 303 303 302 300 295 293 297 296 299 305 302 303 304 304 309 308 307 309 310 310 311 312 309 311 309 307 307 307 310 311 311 313 312 311 310 311 310 310 309 309 309 309 309 309 309 309 309 309 309 309
300 301 301 302 302 303 303 297 294 295 295 296 297 298 301 304 305 307 307 306 309 310 308 310 309 309 310 307 308 308 307 307 311 307 313 315 312 311 309 309 310 310 310 311 311 310 311 311 310 310 310 310 309 308
300 300 301 302 302 301 301 296 296 294 296 302 301 305 304 304 306 308 308 309 310 309 309 308 309 309 307 307 307 307 310 308 304 311 313 313 311 310 309 309 309 310 310 311 311 310 310 310 310 310 311 310 310 310
299 300 300 301 300 300 295 297 299 296 297 303 305 307 305 307 308 310 310 310 309 307 308 307 308 309 306 308 307 307 306 304 308 311 312 311 311 309 308 308 310 311 311 311 311 311 311 310 310 310 310 310 311 311
298 299 300 300 299 296 297 302 300 298 298 304 306 309 308 306 306 306 306 307 307 306 306 306 306 306 308 308 306 305 306 308 308 312 312 313 310 309 309 309 310 310 310 310 310 311 311 310 310 309 309 309 311 311
298 299 299 298 297 300 301 301 298 300 300 304 305 308 306 306 307 306 307 308 306 304 304 305 307 308 308 307 306 307 308 309 315 307 311 309 309 309 309 308 309 309 310 310 310 309 309 308 309 309 308 308 307 308
298 299 299 299 299 300 298 297 299 305 305 309 310 307 306 305 307 306 306 307 304 306 310 307 310 310 305 308 307 304 308 314 311 311 309 308 308 309 308 307 309 308 309 309 309 309 308 307 308 309 308 308 306 306
297 297 298 298 298 297 295 297 301 305 308 309 310 308 304 306 307 307 306 305 306 307 307 310 307 309 311 309 309 308 306 308 308 308 308 309 308 308 307 309 307 307 307 307 308 309 308 307 310 309 308 306 306 305
295 298 298 298 298 296 297 299 301 304 307 308 306 304 304 305 305 306 306 305 305 305 307 308 310 311 312 308 308 308 308 308 311 310 309 308 308 308 306 306 306 307 307 307 308 309 308 307 307 308 307 306 305 304
295 297 298 297 296 297 299 301 301 305 305 308 305 306 306 307 306 305 305 305 305 306 308 309 310 310 310 310 309 310 308 308 308 309 309 309 307 307 307 306 306 305 306 307 307 306 308 307 305 305 306 304 304 302
296 296 297 296 295 295 298 300 301 303 305 306 306 306 308 305 306 306 306 304 305 308 309 308 308 309 308 308 306 306 307 306 308 309 309 309 308 307 307 306 305 306 307 307 308 308 307 306 304 304 305 304 302 302
296 296 296 295 297 298 298 298 299 300 301 305 305 305 307 309 307 306 304 306 307 307 307 307 307 308 308 306 307 306 307 306 306 306 304 305 308 308 308 306 305 306 306 307 307 307 306 304 302 303 303 303 302 301
295 296 295 296 298 299 301 300 302 302 301 302 303 305 305 305 304 302 306 306 306 305 305 305 305 304 306 306 306 307 306 307 309 308 307 307 307 306 306 307 305 305 307 306 305 305 304 302 302 302 302 301 301 301
296 296 298 298 297 299 299 302 302 305 304 305 306 305 305 305 302 304 306 306 305 303 304 305 305 306 306 306 308 308 307 306 307 306 305 306 307 307 306 306 305 304 304 304 306 305 304 302 301 301 300 300 300 299
297 296 296 299 298 301 301 303 303 302 306 306 305 306 306 302 306 305 305 304 303 303 303 303 303 304 305 307 308 306 303 305 308 308 305 305 305 305 305 304 303 302 302 304 305 304 302 300 300 300 298 297 297 298
297 296 298 298 299 301 302 305 304 305 304 305 305 304 301 304 304 305 304 303 302 302 302 303 304 305 306 306 308 307 305 304 305 306 304 303 304 304 304 303 303 303 301 303 303 302 301 299 298 297 297 296 295 296
297 295 296 296 298 298 300 301 300 302 304 305 305 303 304 306 305 304 302 302 303 302 301 303 304 305 307 307 304 304 302 303 304 304 302 300 299 300 301 302 303 301 300 300 299 299 298 297 296 295 295 294 293 293
296 296 297 297 297 299 301 301 301 302 304 303 303 304 305 305 305 303 302 301 301 302 301 300 301 302 303 303 302 301 302 301 300 299 298 297 297 299 299 299 298 299 299 298 296 296 296 295 294 294 293 293 292 291
297 296 296 295 297 298 299 300 301 302 302 303 305 305 305 304 302 303 302 301 301 301 302 302 301 299 298 298 299 301 302 301 302 303 303 302 300 298 298 299 299 298 297 295 294 293 293 293 293 292 291 291 290 290
295 294 295 295 297 298 299 299 299 300 300 302 302 302 302 302 302 301 301 301 301 302 302 301 300 299 301 301 299 298 297 298 299 300 301 301 299 297 297 298 298 297 296 296 295 294 293 293 292 292 290 289 288 288
295 295 296 296 297 297 298 297 298 298 299 299 301 302 302 301 301 296 295 295 297 299 299 300 300 300 300 300 300 300 298 294 295 297 297 297 297 296 296 296 296 296 296 295 294 293 293 292 291 289 288 286 285 285
296 296 297 296 297 297 297 297 298 298 299 299 300 300 300 301 301 296 292 294 297 298 297 298 298 298 296 295 294 294 294 292 292 294 294 294 294 294 295 295 295 294 293 292 292 291 291 290 289 287 286 285 284 284
295 296 296 297 297 297 298 298 299 299 299 300 300 300 301 301 298 293 290 291 291 291 292 291 290 290 290 290 289 289 291 291 292 293 293 293 294 293 293 292 292 291 291 291 290 289 289 288 287 286 284 284 283 282

GFSWCAN_925_thetae_006.txt.gz
Theta_e
306 306 303 300 297 292 291 291 292 292 294 295 294 300 302 303 302 304 305 304 303 305 304 305 304 305 305 306 308 308 309 309 310 311 310 311 313 313 316 315 317 320 321 322 322 327 328 318 319 325 320 319 318 319
306 307 306 304 304 302 294 292 293 292 295 295 293 297 301 303 303 303 305 304 301 302 305 304 305 305 305 305 307 306 307 306 310 311 310 311 313 314 315 320 313 320 316 320 319 319 316 316 316 316 316 317 317 317
304 306 307 306 306 306 304 294 294 294 292 296 296 293 300 302 303 303 305 305 302 304 306 308 308 306 305 304 305 304 307 306 306 308 311 311 312 311 316 316 316 314 313 316 317 317 316 315 314 313 314 315 315 315
304 306 306 306 306 306 306 304 294 296 295 293 295 293 299 301 303 304 305 305 303 304 306 309 307 308 306 304 304 302 303 304 305 305 309 311 312 311 315 313 315 315 315 316 316 315 315 315 314 314 313 313 313 314
305 305 306 306 305 305 305 305 302 297 298 295 294 295 298 301 303 304 304 304 304 304 309 309 307 307 306 306 306 305 305 305 306 309 310 311 311 312 312 313 313 311 313 316 316 314 314 315 314 313 313 313 314 314
304 304 304 305 305 305 305 305 305 299 299 296 295 294 299 302 303 305 310 306 304 302 305 310 309 309 308 309 309 309 308 307 308 309 310 311 310 311 312 314 311 310 310 310 311 311 312 313 313 313 314 315 314 314
303 304 303 304 305 305 305 305 305 302 299 297 296 295 301 306 305 308 310 307 305 302 306 308 312 310 309 309 310 310 309 311 311 312 311 310 309 310 310 311 312 310 310 311 311 311 312 312 313 312 313 314 314 314
302 302 302 303 303 304 304 304 304 303 298 298 296 303 306 305 305 308 308 306 305 305 307 310 312 312 310 312 312 311 311 311 310 311 311 311 311 310 313 312 310 309 310 310 310 310 311 311 312 312 312 313 314 314
299 300 300 301 303 303 303 303 303 300 298 300 296 304 305 307 310 310 306 306 305 307 309 308 311 315 311 312 311 310 310 312 311 311 310 310 311 313 310 309 309 309 310 311 310 310 311 312 312 312 312 312 313 313
299 299 299 300 301 302 302 302 301 296 302 300 304 308 312 309 304 306 306 308 307 309 309 310 311 313 313 312 311 311 309 311 313 312 309 312 312 312 312 312 312 312 312 312 312 313 313 313 312 312 312 312 312 312
299 300 300 301 301 301 302 301 298 297 300 302 302 304 303 302 307 311 312 312 313 313 313 313 313 313 312 313 311 309 310 311 315 314 312 314 313 312 312 312 312 312 311 311 311 312 312 312 313 313 313 312 313 313
297 299 299 300 300 301 301 300 296 300 300 298 298 298 301 306 310 311 312 311 312 312 312 312 311 312 312 310 311 310 309 309 314 312 314 314 313 312 311 311 311 311 311 311 310 311 311 311 311 311 313 313 312 312
295 296 298 299 300 300 300 299 296 299 299 301 300 304 308 310 311 311 310 311 311 311 310 310 311 312 312 311 311 311 314 312 312 315 313 312 311 311 312 311 311 309 310 310 309 309 309 309 310 310 311 310 310 311
295 297 298 298 299 300 297 297 299 300 300 304 306 312 311 310 312 312 311 308 309 310 310 310 310 313 312 312 311 312 311 310 314 316 314 311 311 311 312 311 311 310 310 309 309 309 309 308 309 309 309 309 310 309
294 295 297 299 299 298 299 300 300 299 302 305 308 309 310 309 310 310 310 310 310 310 310 311 310 310 313 311 310 311 312 314 314 314 312 311 311 312 312 312 312 311 310 310 310 309 309 307 308 309 308 309 308 308
293 295 299 299 298 299 299 299 300 301 302 304 307 311 311 310 308 309 310 310 310 310 310 310 311 312 312 311 311 315 316 317 315 316 310 310 311 312 313 312 311 311 311 310 309 308 308 308 308 310 308 308 308 307
293 297 297 296 297 297 299 298 301 302 304 307 310 310 309 309 309 307 307 308 309 310 310 309 309 309 311 312 314 311 316 314 313 310 310 311 312 311 312 312 311 310 310 309 308 308 308 308 307 307 309 309 308 307
293 294 295 296 298 298 299 299 303 304 306 308 310 311 311 310 309 309 308 308 309 310 309 310 309 311 312 316 312 315 314 312 311 311 311 310 312 312 311 310 309 309 309 309 308 308 308 308 310 308 307 308 308 307
293 293 293 294 297 299 300 301 302 305 306 308 309 310 310 309 309 309 309 309 309 308 308 309 309 310 311 309 309 308 309 310 309 310 310 311 311 312 310 309 309 309 308 308 308 308 308 308 308 306 305 307 307 307
292 293 295 296 297 297 299 303 302 304 305 309 309 309 310 310 309 309 309 309 309 309 308 309 308 308 308 309 309 309 308 309 310 310 310 310 310 310 309 309 309 308 308 307 307 306 306 307 307 306 306 307 306 305
293 296 296 296 297 296 298 303 304 304 306 307 308 309 310 309 310 310 310 310 309 310 309 308 308 308 308 308 307 308 310 310 310 309 309 309 309 309 308 308 308 308 308 307 308 307 306 307 306 305 305 307 305 305
293 294 296 296 297 298 298 300 303 302 303 305 305 307 307 309 309 309 308 309 309 310 309 309 308 308 308 308 309 310 310 309 310 309 308 307 309 309 309 308 307 307 307 306 306 306 306 306 305 303 305 305 305 305
292 293 295 296 298 299 299 300 303 303 303 304 305 306 308 308 307 306 308 308 308 308 308 307 307 307 308 307 306 308 309 310 311 311 310 309 308 308 307 307 306 306 306 305 306 306 306 305 304 303 304 304 303 304
294 295 297 297 298 298 300 303 302 304 305 306 306 306 307 308 306 308 308 308 308 305 305 306 307 307 308 308 308 308 308 309 310 309 308 308 308 308 306 305 305 305 305 305 306 306 305 304 303 303 302 302 300 302
298 296 297 297 298 300 301 302 303 305 305 305 305 305 307 307 308 307 307 307 306 305 305 305 305 306 307 307 306 306 307 308 309 309 308 307 306 305 304 303 303 304 304 305 305 305 304 303 303 301 300 299 297 298
298 298 297 298 300 300 301 301 302 303 304 305 306 305 307 307 307 307 307 306 305 306 306 306 306 305 305 306 306 308 308 307 306 307 305 304 303 302 301 301 302 303 303 304 304 303 302 302 301 299 299 298 296 296
296 298 298 298 300 301 301 302 303 304 304 304 305 306 307 308 308 306 306 305 306 305 305 305 307 308 307 308 308 308 307 306 306 305 304 304 303 301 301 301 302 302 302 302 301 301 301 300 299 297 297 296 295 294
294 294 298 299 299 300 300 300 301 303 303 305 306 309 307 306 306 306 305 304 304 304 304 304 304 305 306 307 307 306 305 305 305 304 303 302 302 302 302 302 301 300 300 299 299 299 299 298 298 296 295 294 294 292
296 297 297 297 297 299 299 299 299 300 301 301 303 303 303 303 304 305 304 303 303 303 303 303 303 303 303 304 305 305 305 305 305 305 305 304 303 302 301 301 301 301 300 298 296 295 295 296 296 296 294 293 291 291
295 295 296 296 296 297 298 298 298 299 299 300 301 301 301 302 302 303 303 302 302 303 302 303 303 303 303 303 304 305 305 304 304 304 304 303 303 301 301 300 300 300 299 299 299 297 295 295 295 295 294 293 291 289
296 296 296 297 297 297 297 298 298 298 299 299 299 300 301 300 301 295 293 295 300 302 302 303 303 303 303 303 304 304 304 300 300 300 301 301 300 300 299 299 299 299 299 299 298 297 297 296 295 291 291 290 287 287
296 296 297 297 297 298 298 298 298 298 298 299 299 299 300 301 302 294 290 290 295 300 297 300 301 299 299 298 298 297 299 298 297 296 297 298 298 298 298 298 298 298 298 297 296 296 295 293 292 290 288 288 287 286
296 296 296 296 297 297 298 299 299 299 300 301 301 300 300 301 295 292 289 288 288 289 292 294 294 293 293 292 293 292 292 291 292 293 293 294 295 296 296 296 296 296 295 295 293 293 292 291 290 289 287 286 285 284

GFSWCAN_925_thetae_009.txt.gz
Theta_e
305 304 305 306 306 306 306 305 301 294 295 294 295 296 300 301 303 304 306 307 306 307 307 307 307 308 308 308 309 309 310 311 311 313 312 315 316 315 319 317 319 320 323 323 326 332 332 320 323 328 325 323 323 323
304 304 304 305 306 306 306 305 305 302 296 297 295 294 297 300 301 303 306 307 306 303 307 305 306 307 308 308 308 307 308 308 310 313 311 313 313 314 316 320 316 321 317 320 321 320 317 317 319 320 320 321 320 320
304 304 304 305 306 306 306 305 305 305 304 298 296 295 295 300 300 302 307 307 305 307 309 309 310 308 308 306 306 307 305 306 308 307 310 312 314 313 317 317 315 315 315 318 319 318 316 316 316 317 317 318 318 318
305 305 304 304 305 305 305 305 305 305 305 300 297 296 297 300 300 302 306 307 306 306 307 311 309 310 309 307 306 305 304 305 306 307 311 313 316 313 315 314 315 314 313 316 319 316 316 315 316 316 316 317 317 318
304 303 302 303 304 304 304 305 305 305 305 303 299 296 298 300 301 303 305 307 307 308 310 311 309 310 309 310 310 307 304 306 307 310 312 313 313 313 315 315 315 313 314 316 318 315 313 314 314 316 317 317 318 318
301 301 301 302 303 303 304 304 305 304 304 304 298 297 296 299 302 305 311 309 307 306 305 312 310 310 310 311 311 311 311 309 310 313 313 313 311 311 314 316 313 312 311 311 313 312 312 314 314 314 315 316 317 317
299 299 300 300 300 301 302 302 303 304 304 302 299 298 299 305 305 310 312 309 307 304 306 311 313 311 311 311 312 311 311 312 312 314 314 311 312 313 313 316 313 312 312 312 312 312 313 313 314 314 315 315 315 316
298 298 299 299 299 300 301 302 302 303 304 300 300 297 305 306 307 309 308 306 306 307 309 312 313 312 313 313 314 312 314 314 314 314 314 313 314 314 315 314 312 312 312 312 312 312 313 314 314 314 314 315 315 316
297 298 299 300 300 300 301 302 302 302 303 302 299 304 306 308 311 310 307 306 306 309 312 311 314 315 312 314 312 312 311 314 313 313 313 314 314 315 314 314 313 313 314 314 314 313 313 313 314 314 314 314 314 315
296 297 298 300 301 301 301 301 302 301 301 304 303 309 313 309 304 307 307 309 308 309 310 313 312 315 312 312 312 314 313 314 316 313 313 314 315 314 313 312 313 312 313 313 313 314 312 312 313 314 315 315 315 315
295 295 296 297 298 299 299 301 301 300 305 306 308 308 305 303 306 311 312 313 313 314 313 313 313 315 313 314 313 311 313 314 316 316 315 315 315 313 311 311 311 312 312 310 311 312 312 312 312 312 312 313 313 315
294 295 295 296 297 298 299 300 300 300 304 302 302 301 303 307 310 313 314 313 313 313 314 313 312 312 313 312 313 312 312 313 316 314 315 316 314 312 311 311 310 310 310 309 310 310 310 310 311 311 311 311 311 312
293 293 294 295 297 298 299 299 298 300 301 303 302 304 309 312 314 313 313 313 311 312 311 312 311 312 313 312 313 313 312 315 315 316 316 314 312 312 312 312 311 310 310 310 310 309 309 308 310 310 310 310 310 309
293 293 293 294 296 298 299 299 299 300 303 308 308 314 312 312 313 314 312 311 310 309 310 311 310 312 312 313 313 314 313 314 316 317 315 313 312 312 311 312 311 311 311 310 310 310 309 309 310 310 310 309 309 309
293 293 293 296 299 297 297 297 299 301 305 309 309 310 312 311 311 312 311 311 310 310 310 311 311 311 314 312 312 313 313 315 316 316 315 312 312 312 312 312 312 311 310 310 310 310 309 309 309 308 308 309 310 309
292 293 299 297 296 297 297 298 302 304 306 308 309 311 313 313 312 311 311 311 310 311 310 310 310 311 312 313 313 314 315 317 318 317 312 311 311 311 312 312 312 311 311 310 309 309 309 309 309 308 306 308 309 309
292 295 295 294 295 295 298 299 303 305 306 308 311 310 311 311 313 313 312 311 311 311 312 311 313 311 311 313 315 314 318 315 314 311 311 312 311 311 310 310 310 310 310 310 310 309 309 308 309 308 308 307 308 308
292 294 294 294 293 296 300 300 303 305 306 308 311 310 311 313 313 313 312 311 310 311 310 310 310 311 314 316 313 315 316 310 310 310 310 311 312 311 310 310 309 309 309 309 309 309 308 308 309 309 307 307 307 307
291 291 291 292 295 297 300 302 303 306 307 308 309 310 311 312 312 312 312 311 311 310 309 309 310 312 313 311 311 311 310 311 311 310 312 312 310 311 310 310 309 309 309 309 309 309 308 308 308 307 306 306 307 306
291 291 292 294 295 298 300 302 303 305 307 307 308 309 310 311 312 312 312 312 311 311 311 309 310 311 311 311 311 311 310 310 310 312 310 311 311 311 310 309 310 309 308 308 308 306 307 307 308 307 306 306 307 306
292 294 294 295 298 298 299 302 304 305 306 307 307 309 309 310 312 313 312 311 311 313 313 311 310 310 310 310 309 310 310 310 310 310 310 310 311 310 310 310 309 309 308 308 308 307 306 307 308 306 305 306 306 306
292 292 293 296 297 298 299 299 303 303 304 305 305 305 306 309 309 310 310 312 312 312 312 312 311 311 311 311 310 309 309 309 310 309 309 309 310 308 309 309 309 309 308 307 307 307 306 307 306 305 305 305 305 305
293 293 293 294 298 300 298 299 301 302 303 303 306 306 308 310 310 309 310 311 311 312 311 311 311 310 310 309 309 309 309 309 310 310 310 309 308 308 309 308 308 307 307 306 305 305 306 305 305 305 305 305 304 304
293 294 297 296 298 298 299 300 303 303 304 304 305 305 306 308 308 310 309 310 310 310 310 309 308 308 309 309 309 309 308 308 308 308 309 310 309 310 307 307 307 306 305 305 304 305 305 305 304 304 304 303 303 302
296 297 298 298 299 299 298 299 301 303 303 303 304 305 307 307 308 309 308 309 309 309 308 307 307 307 308 309 310 309 308 308 309 309 309 308 308 308 306 305 305 305 304 304 304 304 304 303 303 303 303 301 299 301
293 298 298 299 298 299 299 299 300 301 301 302 303 305 308 307 307 307 307 308 308 308 308 307 307 307 307 307 307 308 308 307 305 308 307 307 307 306 306 304 303 305 304 303 303 303 303 302 302 302 302 300 297 298
292 294 298 299 300 300 300 301 301 302 303 306 306 306 306 306 306 306 308 308 307 307 306 306 307 307 307 307 306 307 307 306 307 308 306 305 304 303 303 303 303 302 302 302 302 302 302 302 302 301 300 298 296 295
293 293 294 296 297 299 298 299 300 300 300 303 303 303 306 307 308 308 307 307 306 305 305 305 305 306 306 308 307 307 308 307 307 306 304 303 302 302 302 302 301 299 302 301 300 301 301 301 300 300 299 298 296 293
294 296 295 295 296 296 297 299 300 300 300 300 302 302 302 302 302 303 304 304 304 304 305 305 305 304 305 306 307 307 307 306 306 306 305 304 304 303 302 302 300 301 301 299 297 298 297 298 298 298 297 296 294 293
295 295 296 296 297 297 298 298 298 299 299 300 300 300 301 301 302 302 302 303 303 303 303 303 303 304 304 306 306 306 306 306 305 305 306 304 303 303 302 302 302 301 301 301 300 298 297 296 297 298 297 294 292 291
296 296 297 297 297 297 297 297 298 298 299 299 299 300 300 301 298 292 291 292 298 302 303 303 304 304 304 305 305 306 306 304 304 304 303 304 303 303 302 302 301 301 301 300 300 299 299 298 297 293 292 291 290 290
296 297 299 298 298 298 298 298 299 298 299 299 300 300 300 300 302 294 290 291 293 292 295 299 300 300 302 301 301 300 299 299 299 299 301 301 301 301 301 300 300 300 300 299 299 298 296 295 294 292 290 289 289 288
298 298 299 298 299 298 299 298 300 300 300 301 300 300 300 299 296 293 291 289 289 289 289 291 293 293 293 295 295 294 293 292 293 294 296 298 298 298 299 299 298 298 298 297 296 295 295 293 292 290 289 288 287 286